User: anonymous   Login
Location: Fort Wayne
(41.1310°N, 85.1290°W)
Time: 11:53:50
(UTC-04:00)
Language:

COSMOS 2428 - Orbit

View from above orbital plane
View from above orbital plane
View from above satellite
View from above satellite

Ground track
Ground track

The orbit data is extracted from the following two-line orbital elements,

1 31792U 07029A   15123.57004639  .00000137  00000-0  10000-3 0  9991
2 31792 070.9839 238.5823 0007047 348.3346 125.2463 14.12545493404559
Epoch (UTC): 03 May 2015 13:40:52
Eccentricity: 0.0007047
inclination: 70.9839°
perigee height: 845 km
apogee height: 856 km
right ascension of ascending node: 238.5823°
argument of perigee: 348.3346°
revolutions per day: 14.12545493
mean anomaly at epoch: 125.2463°
orbit number at epoch: 40455

The dashed part of the orbit path shows where the satellite is in the earth's shadow,  

DLR